[[{"header":{"parameterUnit":"m.s-1","parameterCategory":1,"la1":30.2991,"la2":30.254,"lo1":-89.0895,"lo2":-89.0444,"dy":0.0017,"dx":0.0017,"nx":28,"ny":28,"refTime":"2023-08-05T09:00:00:Z","depth":0,"parameterNumber":2,"parameterNumberName":"U-component_of_WINDS"},"data":[0,0,0,0,0,0,0,0,0,0,0,0,0,0,0,0,0,0,0,0,0,0,0,0,0,0,0,0,0,0,0,0,0,0,0,0,0,0,0,0,0,0,0,0,0,0,0,0,0,0,0,0,0,0,0,0,0,0,3.8755,3.8756,0,3.8837,3.8838,3.8839,3.8808,3.8806,3.8804,3.8803,3.8891,3.8895,3.8899,0,0,0,0,0,0,0,0,0,0,0,0,0,3.8574,3.8578,3.8755,3.8756,3.8757,3.8837,3.8838,3.884,3.8808,3.8806,3.8804,3.8802,3.8889,3.8894,3.8899,0,0,0,0,0,0,0,0,0,0,0,0,0,3.8654,3.8579,3.8755,3.8751,3.8751,3.8837,3.8838,3.884,3.8809,3.8806,3.8803,3.8801,3.8888,3.8894,3.89,3.8995,0,0,3.8919,3.8921,0,0,0,0,0,0,0,0,3.865,3.8661,3.875,3.8751,3.8752,3.8809,3.8807,3.8892,3.881,3.8787,3.8802,3.8799,3.8866,3.8874,3.8896,3.8999,3.9003,3.8919,3.8923,3.8925,3.8927,0,0,0,0,0,0,0,3.8644,3.8657,3.8787,3.8752,3.8753,3.8747,3.8755,3.8823,3.8842,3.8789,3.8787,3.8797,3.8866,3.889,3.8898,3.9004,3.8919,3.8924,3.8928,3.8931,3.9193,3.9196,0,0,0,0,0,0,3.8638,3.8653,3.8785,3.879,3.8693,3.8752,3.8761,3.8794,3.8841,3.8845,3.8799,3.8795,3.8881,3.889,3.8901,3.9017,3.8925,3.8931,3.8935,3.9189,3.9193,3.9197,0,0,0,0,0,0,3.8634,3.865,3.8782,3.8721,3.8737,3.8758,3.8795,3.8797,3.8821,3.8849,3.8852,3.882,3.8879,3.8892,3.8972,3.9019,3.8934,3.894,3.9185,3.9191,3.9195,3.9249,0,0,0,0,0,0,3.8629,3.8649,3.8684,3.8722,3.8741,3.885,3.8798,3.8801,3.8831,3.8827,3.8869,3.8873,3.8878,3.8963,3.8978,3.9026,3.8944,3.9181,3.9188,3.9193,3.9243,3.9255,3.9266,0,0,0,0,0,3.8623,3.8696,3.8686,3.8702,3.8785,3.8853,3.8864,3.8866,3.8835,3.8872,3.889,3.8872,3.9012,3.8971,3.8988,3.9039,3.9178,3.9186,3.9193,3.9238,3.9253,3.9265,0,0,0,0,0,0,3.8664,3.8701,3.869,3.8777,3.8812,3.8848,3.8893,3.8882,3.8927,3.8921,3.8923,3.8933,3.9016,3.9035,3.899,3.9135,3.9091,3.9102,3.9119,3.9133,3.9144,3.9138,3.895,0,0,0,0,0,3.8683,3.8734,3.8764,3.8839,3.8856,3.8872,3.8902,3.8901,3.8938,3.8953,3.8976,3.9014,3.9066,3.9101,3.915,3.9246,3.9256,3.9289,3.93,3.931,3.9319,3.9374,3.9389,3.9221,3.9221,3.9221,0,0,3.8723,3.875,3.8782,3.8847,3.8874,3.8929,3.8885,3.8944,3.8985,3.8962,3.9039,3.9058,3.91,3.9189,3.9229,3.9208,3.9368,3.9319,3.9326,3.9331,3.9383,3.9399,3.9413,3.9226,3.9225,3.9224,0,0,3.8824,3.8849,3.8914,3.8942,3.8983,3.8994,3.901,3.9047,3.9059,3.9137,3.9121,3.9171,3.926,3.9292,3.9319,3.9435,3.9421,3.9451,3.951,3.9563,3.9576,3.9588,3.9631,3.9646,3.9461,3.9461,3.9461,0,3.8869,3.8949,3.895,3.9011,3.9041,3.9022,3.909,3.9118,3.9173,3.9196,3.917,3.9284,3.9311,3.9408,3.9436,3.9459,3.9479,3.9446,3.9574,3.9586,3.9597,3.9638,3.9654,3.9464,3.9464,3.9464,3.9463,0,3.9004,3.906,3.9108,3.9162,3.9198,3.9262,3.9274,3.931,3.9307,3.9321,3.9401,3.9433,3.949,3.9512,3.951,3.961,3.9596,3.9572,3.9528,3.9616,3.9655,3.9671,3.9469,3.9468,3.9467,3.9466,0,0,3.9132,3.9187,3.9204,3.923,3.9275,3.9319,3.9383,3.9438,3.9471,3.951,3.9566,3.9643,3.9622,3.9654,3.9654,3.9701,3.9793,3.9672,3.9673,3.9695,3.9908,3.9926,3.9944,3.9784,3.9787,3.9789,3.9905,0,3.9238,3.9349,3.9353,3.9456,3.9509,3.9493,3.9549,3.9584,3.9599,3.9648,3.9665,3.972,3.9687,3.9707,3.9752,3.9772,3.9836,3.9764,3.9837,3.984,3.9828,3.9964,3.9983,4.009,3.992,3.9922,3.9924,0,3.9376,3.942,3.9528,3.9568,3.959,3.964,3.9692,3.9738,3.9778,3.9786,3.9822,3.9817,3.9885,3.9838,3.9933,3.9884,3.9914,3.9929,3.9933,3.9941,3.9888,3.9976,4.0124,4.0141,3.9948,3.9946,3.9944,0,3.9461,3.9547,3.9624,3.9646,3.9693,3.9729,3.9751,3.9788,3.9822,3.9867,3.989,3.9943,3.9973,4.0015,4.0025,3.9989,4.0121,4.0074,4.0131,4.0131,4.0159,4.0158,4.0316,4.0177,4.0177,4.0177,4.0177,0,3.958,3.9647,3.9663,3.971,3.9786,3.979,3.9865,3.9884,3.9918,3.997,3.9959,4.0009,4.0018,4.007,4.0079,4.0157,4.017,4.018,4.0182,4.0182,4.0181,4.0202,4.0195,4.0181,4.018,4.0179,4.0179,0,3.9687,3.97,3.9783,3.9821,3.9833,3.9887,3.9921,3.9967,3.9981,4.0047,4.0063,4.0086,4.0147,4.0161,4.0233,4.0239,4.0332,4.0326,4.0319,4.0319,4.0375,4.037,4.0553,4.0578,4.0423,4.0424,4.0425,0,3.9763,3.9814,3.9858,3.9892,3.9915,3.9969,4.0004,4.001,4.0047,4.0098,4.0138,4.0198,4.0246,4.0344,4.0368,4.0425,4.042,4.0481,4.0429,4.0428,4.0423,4.042,4.0427,4.0491,4.0493,4.0494,4.0495,0,3.9896,3.99,3.9949,4.0002,4.0043,4.0084,4.0124,4.0153,4.0165,4.0207,4.0269,4.0306,4.0381,4.0441,4.0497,4.0521,4.0512,4.0511,4.0528,4.0528,4.0523,4.0528,4.0347,4.0507,4.0506,4.0505,4.0504,4.0504,3.999,4.0036,4.0075,4.0131,4.0161,4.0199,4.0245,4.0265,4.0316,4.0377,4.0378,4.0446,4.0487,4.0562,4.059,4.0644,4.0626,4.0649,4.0655,4.0661,4.0667,4.0513,4.0654,4.0654,4.0654,4.0654,4.0653,0,4.0124,4.0148,4.02,4.0256,4.0301,4.0286,4.033,4.0369,4.0428,4.0467,4.0515,4.0587,4.0646,4.0675,4.0733,4.0772,4.0769,4.0787,4.0785,4.0791,4.0679,4.066,4.0788,4.0788,4.0788,4.0788,4.0788,4.0788,4.0199,4.0276,4.0285,4.0378,4.0403,4.0468,4.0495,4.0531,4.0562,4.0643,4.0691,4.0709,4.0745,4.0807,4.0861,4.0868,4.0891,4.0912,4.0917,4.0812,4.0798,4.0785,4.0767,4.0916,4.0916,4.1024,4.1025,4.1026]},{"header":{"parameterUnit":"m.s-1","parameterCategory":1,"la1":30.2991,"la2":30.254,"lo1":-89.0895,"lo2":-89.0444,"dy":0.0017,"dx":0.0017,"nx":28,"ny":28,"refTime":"2023-08-05T09:00:00:Z","depth":0,"parameterNumber":3,"parameterNumberName":"V-component_of_WINDS"},"data":[0,0,0,0,0,0,0,0,0,0,0,0,0,0,0,0,0,0,0,0,0,0,0,0,0,0,0,0,0,0,0,0,0,0,0,0,0,0,0,0,0,0,0,0,0,0,0,0,0,0,0,0,0,0,0,0,0,0,-0.2588,-0.2588,0,-0.2568,-0.2568,-0.2568,-0.257,-0.257,-0.257,-0.2571,-0.2549,-0.2548,-0.2547,0,0,0,0,0,0,0,0,0,0,0,0,0,-0.2628,-0.2627,-0.2588,-0.2588,-0.2588,-0.2568,-0.2568,-0.2568,-0.257,-0.257,-0.257,-0.2571,-0.2549,-0.2548,-0.2547,0,0,0,0,0,0,0,0,0,0,0,0,0,-0.261,-0.2627,-0.2588,-0.2586,-0.2586,-0.2568,-0.2568,-0.2568,-0.257,-0.257,-0.2571,-0.2571,-0.2549,-0.2548,-0.2547,-0.2529,0,0,-0.2543,-0.2542,0,0,0,0,0,0,0,0,-0.2611,-0.2608,-0.2587,-0.2587,-0.2586,-0.2572,-0.2574,-0.2555,-0.257,-0.2576,-0.2571,-0.2571,-0.2556,-0.2554,-0.2549,-0.2528,-0.2527,-0.2543,-0.2542,-0.2541,-0.2541,0,0,0,0,0,0,0,-0.2612,-0.2609,-0.258,-0.2587,-0.2586,-0.2587,-0.2585,-0.257,-0.2563,-0.2575,-0.2575,-0.2573,-0.2556,-0.2551,-0.2549,-0.2527,-0.2543,-0.2542,-0.2541,-0.254,-0.2492,-0.2491,0,0,0,0,0,0,-0.2614,-0.261,-0.2581,-0.258,-0.26,-0.2586,-0.2583,-0.2576,-0.2564,-0.2562,-0.2573,-0.2573,-0.2553,-0.255,-0.2548,-0.2527,-0.2541,-0.254,-0.2539,-0.2492,-0.2491,-0.2491,0,0,0,0,0,0,-0.2615,-0.2611,-0.2582,-0.2595,-0.2591,-0.2584,-0.2576,-0.2575,-0.257,-0.2562,-0.256,-0.2569,-0.2553,-0.255,-0.2534,-0.2527,-0.2539,-0.2538,-0.2493,-0.2492,-0.2491,-0.2485,0,0,0,0,0,0,-0.2616,-0.2612,-0.2605,-0.2595,-0.2591,-0.2568,-0.2576,-0.2575,-0.2568,-0.2569,-0.2557,-0.2556,-0.2553,-0.2536,-0.2533,-0.2525,-0.2537,-0.2493,-0.2492,-0.2491,-0.2486,-0.2485,-0.2483,0,0,0,0,0,-0.2617,-0.2603,-0.2604,-0.2601,-0.2582,-0.2568,-0.2565,-0.2562,-0.2567,-0.2561,-0.2555,-0.2556,-0.2528,-0.2535,-0.2531,-0.2522,-0.2494,-0.2493,-0.2491,-0.2487,-0.2485,-0.2483,0,0,0,0,0,0,-0.2611,-0.2602,-0.2603,-0.2585,-0.2578,-0.2568,-0.2559,-0.256,-0.255,-0.2551,-0.2548,-0.2545,-0.253,-0.2525,-0.2532,-0.2505,-0.2512,-0.251,-0.2509,-0.2507,-0.2506,-0.2507,-0.2536,0,0,0,0,0,-0.2608,-0.2598,-0.259,-0.2575,-0.2571,-0.2566,-0.256,-0.2559,-0.255,-0.2547,-0.254,-0.2532,-0.2521,-0.2514,-0.2503,-0.2486,-0.2484,-0.2478,-0.2477,-0.2475,-0.2474,-0.2465,-0.2463,-0.2487,-0.2487,-0.2487,0,0,-0.2601,-0.2595,-0.2588,-0.2574,-0.2568,-0.2557,-0.2563,-0.2551,-0.2543,-0.2545,-0.253,-0.2525,-0.2515,-0.2499,-0.2491,-0.2494,-0.2467,-0.2474,-0.2473,-0.2472,-0.2464,-0.2461,-0.2459,-0.2486,-0.2487,-0.2487,0,0,-0.2583,-0.2577,-0.2564,-0.2559,-0.2549,-0.2546,-0.2543,-0.2534,-0.2531,-0.2517,-0.2518,-0.2508,-0.249,-0.2483,-0.2477,-0.2459,-0.246,-0.2456,-0.2447,-0.2439,-0.2437,-0.2435,-0.2429,-0.2427,-0.2454,-0.2454,-0.2454,0,-0.2575,-0.2559,-0.2558,-0.2546,-0.254,-0.2542,-0.253,-0.2524,-0.2511,-0.2507,-0.2511,-0.2489,-0.2482,-0.2465,-0.2461,-0.2456,-0.2452,-0.2457,-0.2437,-0.2436,-0.2434,-0.2428,-0.2426,-0.2453,-0.2454,-0.2454,-0.2454,0,-0.2551,-0.254,-0.2531,-0.252,-0.2513,-0.2501,-0.2498,-0.2491,-0.2491,-0.2488,-0.2473,-0.2466,-0.2455,-0.245,-0.2449,-0.2433,-0.2435,-0.2438,-0.2444,-0.2431,-0.2426,-0.2424,-0.2453,-0.2453,-0.2453,-0.2453,0,0,-0.2527,-0.2517,-0.2514,-0.251,-0.25,-0.2492,-0.2481,-0.247,-0.2465,-0.2457,-0.2447,-0.2433,-0.2436,-0.2429,-0.2428,-0.242,-0.2407,-0.2424,-0.2424,-0.2422,-0.239,-0.2388,-0.2385,-0.2408,-0.2408,-0.2407,-0.2391,0,-0.2509,-0.2489,-0.2488,-0.247,-0.246,-0.2463,-0.2453,-0.2446,-0.2443,-0.2435,-0.2431,-0.2421,-0.2425,-0.2422,-0.2415,-0.241,-0.2401,-0.2411,-0.2399,-0.2399,-0.2402,-0.2382,-0.238,-0.2365,-0.2389,-0.2388,-0.2388,0,-0.2484,-0.2476,-0.2458,-0.2451,-0.2447,-0.2438,-0.243,-0.2422,-0.2415,-0.2413,-0.2407,-0.2407,-0.2395,-0.2402,-0.2387,-0.2394,-0.239,-0.2387,-0.2386,-0.2385,-0.2393,-0.2381,-0.236,-0.2358,-0.2384,-0.2385,-0.2385,0,-0.2469,-0.2454,-0.2442,-0.2438,-0.243,-0.2424,-0.242,-0.2414,-0.2408,-0.24,-0.2397,-0.2388,-0.2383,-0.2376,-0.2374,-0.2379,-0.2359,-0.2365,-0.2357,-0.2357,-0.2353,-0.2353,-0.2331,-0.2349,-0.2349,-0.2349,-0.2349,0,-0.2449,-0.2437,-0.2435,-0.2427,-0.2415,-0.2414,-0.2402,-0.2399,-0.2393,-0.2385,-0.2386,-0.2378,-0.2376,-0.2368,-0.2366,-0.2354,-0.2352,-0.235,-0.235,-0.235,-0.2351,-0.2347,-0.2348,-0.2349,-0.2349,-0.2349,-0.2349,0,-0.243,-0.2428,-0.2415,-0.2409,-0.2407,-0.2398,-0.2393,-0.2386,-0.2384,-0.2373,-0.2371,-0.2367,-0.2358,-0.2355,-0.2344,-0.2343,-0.2329,-0.2329,-0.2331,-0.2331,-0.2324,-0.2325,-0.2299,-0.2296,-0.2316,-0.2316,-0.2316,0,-0.2417,-0.2408,-0.2402,-0.2397,-0.2394,-0.2385,-0.238,-0.2379,-0.2374,-0.2366,-0.236,-0.2351,-0.2344,-0.2329,-0.2325,-0.2316,-0.2317,-0.2308,-0.2316,-0.2317,-0.2317,-0.2318,-0.2317,-0.2307,-0.2307,-0.2307,-0.2306,0,-0.2394,-0.2394,-0.2387,-0.2379,-0.2373,-0.2367,-0.2361,-0.2357,-0.2356,-0.2349,-0.234,-0.2335,-0.2324,-0.2315,-0.2307,-0.2303,-0.2305,-0.2304,-0.2302,-0.2302,-0.2304,-0.2304,-0.2328,-0.2305,-0.2305,-0.2305,-0.2305,-0.2305,-0.2378,-0.2371,-0.2366,-0.2358,-0.2354,-0.2349,-0.2343,-0.234,-0.2333,-0.2324,-0.2324,-0.2315,-0.2309,-0.2298,-0.2294,-0.2287,-0.2289,-0.2286,-0.2285,-0.2284,-0.2284,-0.2306,-0.2285,-0.2285,-0.2285,-0.2285,-0.2285,0,-0.2356,-0.2353,-0.2346,-0.2339,-0.2333,-0.2335,-0.233,-0.2324,-0.2316,-0.2311,-0.2304,-0.2295,-0.2287,-0.2283,-0.2275,-0.227,-0.227,-0.2268,-0.2268,-0.2267,-0.2282,-0.2285,-0.2268,-0.2268,-0.2268,-0.2268,-0.2268,-0.2268,-0.2344,-0.2333,-0.2332,-0.2319,-0.2317,-0.2308,-0.2304,-0.23,-0.2296,-0.2285,-0.2279,-0.2277,-0.2273,-0.2265,-0.2258,-0.2257,-0.2254,-0.2251,-0.2251,-0.2264,-0.2266,-0.2268,-0.2271,-0.2251,-0.2251,-0.2237,-0.2237,-0.2237]}]]